Theta_e
328 326 327 331 331 336 339 342 343 343 341 341 341 341 338 336 335 334 333 334 335 332 330 327 324 323 322 320 317 314 314 315 318 316 318 317 317 317 317 316 314 312 311
328 326 327 335 335 338 341 344 345 343 341 340 338 336 335 331 327 326 328 331 330 326 324 322 321 321 322 319 316 314 314 316 317 317 316 317 315 314 315 314 312 310 309
327 328 329 328 339 341 343 347 345 342 340 338 335 331 326 322 320 322 323 320 321 320 320 319 319 319 317 316 313 313 314 316 316 316 316 318 317 314 312 312 311 309 308
329 330 332 330 329 338 344 345 343 340 339 337 333 328 324 320 318 316 314 313 314 315 316 315 313 311 310 311 312 314 314 313 315 315 314 313 315 315 313 311 309 309 308
330 331 330 329 330 331 334 344 341 337 335 332 330 325 323 319 314 313 310 309 309 309 308 307 308 307 306 307 306 309 311 312 312 312 312 311 311 312 313 311 309 308 306
330 330 330 329 327 324 323 329 332 328 329 326 324 323 320 311 309 307 306 306 306 305 306 307 306 305 303 300 301 303 305 305 305 307 309 309 309 310 310 311 309 308 306
330 330 331 330 327 324 319 319 322 320 321 321 320 318 314 312 308 307 307 307 307 307 307 307 306 305 303 303 303 302 301 302 302 302 303 303 303 304 306 307 308 307 306
330 331 330 329 328 326 323 319 317 316 318 319 317 317 315 314 312 312 312 310 309 308 307 306 303 303 301 300 300 300 300 299 299 300 302 303 302 301 303 304 305 307 305
329 329 329 328 328 328 326 325 324 321 318 317 314 314 313 313 311 310 309 306 306 305 303 303 303 302 301 300 299 300 299 300 302 302 301 299 297 298 299 301 302 305 306
329 329 329 328 328 328 327 326 324 322 319 317 316 314 313 310 308 306 305 305 304 304 302 303 301 301 301 300 299 298 298 297 296 296 296 295 295 296 296 297 299 301 302
328 328 328 327 327 326 324 323 322 320 318 315 313 312 311 310 308 308 306 306 305 305 302 303 301 300 299 298 297 297 296 295 294 295 294 294 294 294 294 294 296 297 297
327 327 326 325 325 323 322 321 321 320 319 317 314 313 311 311 309 309 308 308 307 305 302 300 298 297 297 296 295 294 295 294 294 293 293 292 292 292 292 292 293 293 294
326 326 325 324 323 322 320 320 320 319 319 318 316 314 312 311 310 309 306 304 304 302 300 299 298 296 295 293 294 294 294 295 295 294 293 293 293 294 293 293 293 293 293
325 325 325 324 322 321 321 320 320 319 318 317 317 315 313 312 310 306 304 302 301 300 299 298 297 297 297 298 299 297 296 295 294 293 293 292 292 292 292 291 291 291 291
324 323 323 323 323 322 321 320 320 319 318 317 317 316 314 313 311 308 306 305 303 302 301 300 299 299 299 298 297 295 294 294 293 291 289 287 286 287 287 287 289 288 290
318 318 317 317 317 319 321 320 320 320 319 317 317 316 313 312 310 308 306 305 304 303 301 300 299 299 298 296 295 295 295 294 292 291 288 285 282 281 281 283 285 286 288
317 316 315 314 314 314 317 320 320 320 320 318 317 316 313 312 310 308 307 306 304 302 300 299 298 297 297 294 293 293 294 293 292 291 289 286 284 283 281 279 280 282 285
315 314 312 310 309 309 311 314 317 319 320 319 318 315 312 310 309 308 306 305 303 301 300 297 296 295 294 291 290 291 292 291 290 289 288 285 284 282 282 281 281 280 281
308 307 309 309 308 309 308 310 315 314 319 318 317 312 310 307 307 306 304 302 301 300 297 295 294 293 291 290 291 290 289 288 286 286 284 284 283 280 280 281 281 280 278
301 303 304 305 306 306 306 309 312 315 317 316 316 310 309 305 305 303 302 299 298 297 295 293 293 292 291 290 290 288 287 286 285 283 283 283 283 279 278 280 280 281 279
300 299 301 304 305 306 306 307 310 314 316 315 312 306 304 303 302 300 298 297 295 294 293 292 292 291 292 289 289 287 287 286 285 284 282 281 281 279 278 280 281 281 280
299 300 300 303 304 307 305 304 309 313 312 311 307 302 301 299 297 297 295 294 294 293 292 292 291 290 291 289 287 287 287 286 285 285 284 283 280 279 278 279 280 280 280
299 299 301 302 303 304 305 304 305 311 308 303 301 300 299 297 296 295 293 292 292 292 291 290 290 289 289 289 287 286 286 286 286 285 284 283 280 280 278 278 278 278 280
298 299 300 301 302 303 304 303 305 305 303 300 299 298 297 296 295 294 293 293 293 293 292 291 291 289 288 288 287 286 285 285 285 284 283 280 280 280 279 277 277 279 280
298 298 298 299 301 302 303 302 300 300 299 299 297 297 297 295 294 294 294 294 293 294 293 292 291 290 288 288 287 286 285 284 283 282 281 280 281 281 280 279 279 279 280
298 298 298 298 299 301 302 301 298 298 298 297 296 296 296 295 294 293 293 293 293 293 293 292 292 291 291 289 287 286 285 283 283 282 282 282 282 282 281 280 280 280 281
Wind_Speed
17 19 6 13 16 21 24 26 28 30 27 26 23 20 20 17 18 19 20 18 21 18 17 18 19 17 17 15 15 14 13 14 13 15 12 9 10 11 11 12 11 10 9
16 6 5 9 13 17 20 23 25 26 28 23 24 19 17 16 18 21 24 26 26 23 23 14 17 19 15 16 15 14 14 14 16 14 14 6 6 3 7 10 11 10 9
5 2 4 4 7 14 18 17 21 25 28 23 23 18 20 15 15 21 21 20 22 22 19 14 13 11 7 12 14 15 14 13 19 10 3 4 4 17 7 5 9 9 8
2 3 4 3 3 6 9 19 25 28 29 28 29 28 18 13 9 17 18 17 17 18 19 19 15 13 16 13 9 4 6 6 10 10 2 3 6 2 5 10 7 8 7
3 2 0 1 1 4 4 12 20 26 26 29 30 25 17 20 24 24 21 19 17 15 15 13 14 13 10 17 12 6 5 7 4 8 3 0 3 7 4 7 10 7 8
4 2 4 5 5 5 7 13 20 18 23 25 23 25 25 26 27 25 23 20 18 16 12 9 9 8 8 9 13 11 9 7 7 5 3 3 4 4 5 5 10 12 11
4 4 5 5 5 6 8 13 19 20 21 23 24 25 25 26 25 25 26 24 23 19 19 17 19 17 13 15 15 19 14 8 6 4 3 4 2 3 2 1 2 10 16
6 6 5 6 8 9 9 10 12 17 19 20 21 21 21 22 25 26 25 22 25 25 18 19 14 21 15 9 12 12 10 11 10 7 9 9 6 3 6 3 10 5 8
8 8 7 8 9 10 11 12 14 14 14 15 18 24 24 31 31 29 28 27 23 29 22 19 17 15 18 14 13 13 14 14 15 13 11 10 8 7 5 12 16 13 6
10 8 8 8 10 11 13 13 13 14 15 16 16 17 16 15 18 21 23 21 19 22 18 18 16 18 14 14 14 14 15 14 12 11 10 9 8 6 6 6 10 8 11
11 9 9 11 11 13 15 15 16 17 18 16 16 16 16 17 17 16 18 17 18 20 20 18 15 14 15 13 13 13 13 13 12 11 11 10 9 7 6 4 6 9 7
13 12 11 13 15 15 14 14 15 16 16 17 17 17 18 18 18 17 17 18 18 18 18 19 20 17 17 16 15 13 11 11 10 9 8 6 6 7 7 5 5 4 4
14 15 15 14 17 17 16 17 17 17 19 19 19 19 19 19 18 19 20 22 21 21 21 19 16 15 16 16 12 10 11 10 9 9 9 6 5 4 5 7 8 8 7
17 18 16 15 16 19 20 19 19 20 21 21 22 21 20 21 19 18 19 20 20 20 18 17 17 15 13 12 12 12 11 10 8 7 5 5 4 5 5 6 6 7 9
7 10 10 10 14 20 21 22 22 21 22 22 22 22 22 21 20 21 21 21 20 19 19 19 17 16 15 14 15 14 13 11 9 7 6 5 7 10 9 6 6 6 8
9 16 13 13 9 18 21 24 23 24 21 23 23 21 21 20 22 21 22 22 22 21 20 20 20 19 16 17 19 16 14 12 11 11 11 8 5 4 8 11 11 9 6
6 2 6 16 16 12 21 22 20 24 25 26 24 24 24 24 23 23 24 24 23 22 23 22 20 21 17 22 21 16 11 12 11 11 13 11 10 9 8 8 7 9 9
6 7 5 13 25 25 25 33 8 19 26 27 26 27 26 26 26 26 27 26 25 26 25 26 26 19 21 21 20 17 14 14 14 15 15 12 12 11 10 10 11 10 8
9 9 11 16 25 30 26 26 23 33 28 29 27 31 31 33 28 32 33 32 31 32 29 25 24 22 21 20 19 19 17 15 15 15 13 13 11 11 11 11 12 12 7
16 11 15 16 20 22 22 26 24 24 28 27 34 40 40 40 37 40 40 37 34 33 28 27 26 24 21 22 21 21 18 17 16 14 12 12 11 12 11 10 11 12 10
19 20 18 17 17 19 20 25 28 29 35 37 34 35 39 40 41 40 38 36 32 29 27 27 25 23 20 23 22 21 19 20 16 14 12 10 12 12 11 10 10 10 12
19 20 21 17 14 11 15 23 26 25 30 39 33 32 35 34 35 37 35 34 30 28 24 21 20 22 21 23 24 23 19 18 17 15 13 12 14 13 11 10 11 13 12
26 27 22 21 17 14 16 21 25 18 26 26 30 29 29 29 31 34 32 28 27 24 22 21 18 20 22 23 24 22 20 18 16 15 15 13 17 14 12 10 11 13 11
22 27 25 21 21 19 14 17 17 18 25 24 26 29 30 28 28 29 31 27 26 23 21 20 19 19 23 24 27 24 21 19 16 17 15 14 17 15 11 12 13 12 11
27 26 23 22 27 19 16 15 12 14 20 23 26 28 29 30 28 27 30 27 27 27 27 25 23 25 24 29 31 29 26 23 20 18 16 17 17 15 13 14 14 14 13
28 26 24 24 23 25 13 11 15 19 22 23 25 28 28 28 27 25 22 20 23 25 23 24 28 26 23 27 31 31 28 25 25 19 18 18 18 18 17 17 17 16 16
Wind_Direction
265 251 282 266 237 215 213 199 195 196 203 201 195 194 193 184 192 194 193 190 187 189 195 195 182 191 183 180 184 181 187 190 174 167 153 146 156 168 173 164 156 162 163
250 215 292 272 224 213 217 200 198 194 197 198 191 194 182 183 192 197 197 199 200 195 186 173 190 186 190 171 178 182 180 188 179 177 165 168 162 189 174 162 162 168 163
219 176 296 284 250 219 211 194 193 193 194 194 182 174 169 178 183 195 191 189 193 188 181 173 193 226 167 166 169 183 189 187 181 200 223 163 198 155 174 174 171 166 177
167 245 318 282 233 341 208 189 191 195 194 194 191 190 181 171 178 167 161 159 171 179 180 174 166 149 124 120 125 155 168 128 181 230 315 36 69 187 159 180 174 181 185
208 214 101 19 65 357 19 184 184 185 187 195 200 187 161 153 146 150 148 140 140 149 142 143 153 151 136 131 135 136 114 130 162 191 212 188 7 340 142 156 164 204 206
214 175 131 125 105 94 109 139 158 156 177 186 189 183 167 146 140 141 136 135 127 121 119 113 102 96 112 83 105 109 99 86 90 110 99 33 36 29 29 57 152 177 200
225 196 180 154 135 131 127 141 154 151 164 171 171 171 165 160 147 145 141 139 142 146 151 152 158 146 165 166 181 168 164 164 149 135 132 156 201 316 354 262 256 212 195
213 215 181 167 156 155 154 150 152 154 167 169 166 164 165 165 163 160 158 160 162 161 167 158 180 152 149 139 155 159 162 164 162 180 219 236 238 234 213 212 250 240 176
204 201 191 178 170 165 162 165 165 163 165 161 157 160 163 160 160 158 157 171 168 150 170 167 167 160 158 168 168 175 181 192 203 214 223 212 205 184 199 225 232 216 215
195 191 196 191 179 164 154 150 148 147 150 146 146 146 150 148 146 153 145 158 163 146 152 171 167 166 160 179 179 186 190 185 181 179 181 179 161 164 172 191 214 245 245
202 191 193 198 168 153 146 149 149 148 146 145 146 145 147 148 151 150 152 153 153 157 164 170 160 155 158 173 171 171 168 167 162 161 158 146 146 148 142 152 175 229 259
205 193 192 188 174 171 167 166 163 161 163 163 159 158 158 157 158 161 161 161 161 163 162 163 163 159 165 172 177 158 160 158 152 147 137 132 139 144 149 145 138 179 229
217 198 196 197 193 187 184 176 175 175 173 171 171 166 163 163 164 167 169 171 171 171 168 167 163 164 168 172 169 174 172 172 176 170 167 168 189 224 227 219 214 224 235
222 207 202 207 208 200 194 189 184 184 179 176 167 167 173 172 172 177 174 170 171 168 168 169 165 168 173 178 178 176 171 166 158 161 166 166 191 214 206 210 208 208 196
223 230 222 230 219 220 213 200 189 194 189 182 189 186 182 177 175 173 173 172 172 173 172 170 172 175 179 180 176 169 169 168 165 160 149 133 180 185 182 177 188 197 212
24 338 343 321 346 311 223 208 204 185 192 194 190 183 180 178 172 175 173 174 176 174 173 175 176 176 178 186 181 174 173 175 177 164 152 136 130 175 198 189 190 181 176
308 275 318 309 308 296 270 261 204 207 182 198 194 181 181 181 176 180 178 178 175 172 175 177 177 176 184 191 186 174 173 178 178 169 157 149 151 125 120 141 161 188 177
263 283 305 309 302 310 316 319 243 256 200 199 194 179 183 180 177 182 178 174 173 177 177 181 184 179 195 184 181 178 182 175 175 176 168 162 149 153 144 135 119 113 135
340 313 280 255 273 274 282 278 231 222 220 198 193 181 185 178 177 185 178 173 176 182 186 185 184 189 190 184 182 176 177 179 178 182 181 160 161 168 152 144 131 113 106
318 289 275 269 269 270 270 261 253 230 212 201 195 189 191 186 184 186 184 181 183 184 186 186 191 194 192 187 178 185 170 164 165 169 175 174 172 174 166 166 144 131 141
297 307 295 260 274 285 268 254 246 238 218 208 201 186 191 188 192 186 185 185 180 180 184 189 189 193 197 192 182 181 176 170 166 169 175 181 176 175 170 159 152 150 152
286 284 288 283 284 285 275 272 259 234 216 205 200 191 185 183 184 183 181 183 175 174 175 180 186 198 196 198 189 177 181 183 176 177 180 193 176 175 169 158 169 164 151
288 287 277 285 294 288 284 272 264 237 210 194 190 185 178 179 176 174 173 172 175 172 170 177 183 189 193 192 194 186 183 189 182 179 182 195 171 173 171 171 175 167 161
274 281 290 280 275 289 287 276 276 218 199 189 185 181 176 173 172 175 175 173 177 173 174 181 184 179 185 187 191 194 187 186 175 177 176 171 166 174 173 171 176 176 178
275 269 273 280 288 277 287 282 250 205 192 192 185 181 176 173 172 177 181 182 188 183 180 190 188 180 185 195 194 188 183 182 177 164 159 167 174 178 176 184 187 191 191
268 266 266 268 271 285 265 259 243 211 200 193 183 178 175 172 171 168 164 182 189 191 197 200 205 205 210 201 197 194 189 181 180 167 174 183 189 191 190 191 192 199 198